Hyannis, MA

8:44 AM EDT on July 22, 2017 (GMT -0400)
Barnstable Municipal-Boardman-Polando Field

Weather History for KHYA - March, 2013

Change the Weather History Date:

Saturday, March 9, 2013

  Actual Average Record
Temperature  
Mean Temperature 38 °F -  
Max Temperature 39 °F 41 °F 61 °F (1987)
Min Temperature 35 °F 25 °F 6 °F (2007)
Degree Days  
Heating Degree Days 28    
Moisture  
Dew Point 31 °F    
Average Humidity 76    
Maximum Humidity 86    
Minimum Humidity 70    
Precipitation  
Precipitation 0.00 in - - ()
Sea Level Pressure  
Sea Level Pressure 30.17 in    
Wind  
Wind Speed 18 mph (NNE)    
Max Wind Speed 24 mph    
Max Gust Speed 38 mph    
Visibility 10 miles    
Events      
Averages and records for this station are not official NWS values.
T = Trace of Precipitation, MM = Missing Value Source: NWS Daily Summary

Daily Weather History Graph

Daily Weather History Graph

Search for Another Location

Airport or City:

Trip Planner

Search our weather history database for the weather conditions in past years. The results will help you decide how hot, cold, wet, or windy it might be!

Date:

Astronomy

Mar. 09, 2013 Rise Set
Actual Time 6:02 AM EST 5:41 PM EST
Civil Twilight 5:34 AM EST 6:08 PM EST
Nautical Twilight 5:02 AM EST 6:41 PM EST
Astronomical Twilight 4:30 AM EST 7:13 PM EST
Moon 4:26 AM EST (3/9) 3:38 PM EST (3/9)
Length of Visible Light 12h 33m
Length of Day
11h 38m
Waning Crescent, 5% of the Moon is Illuminated
Mar 9
Waning Crescent
Mar 11
New
Mar 19
First Quarter
Mar 27
Full
Apr 3
Last Quarter

Hourly Weather History & Observations

Time (EST) Temp. Windchill Dew Point Humidity Pressure Visibility Wind Dir Wind Speed Gust Speed Precip Events Conditions
12:42 AM 39.2 °F 29.6 °F 30.2 °F 70% 30.03 in 10.0 mi North 19.6 mph 33.4 mph N/A   Overcast
12:56 AM 39.0 °F 29.0 °F 30.0 °F 70% 30.03 in 10.0 mi North 20.7 mph 31.1 mph N/A   Overcast
1:56 AM 39.0 °F 28.5 °F 30.0 °F 70% 30.02 in 10.0 mi North 23.0 mph 32.2 mph N/A   Overcast
2:56 AM 37.9 °F 27.9 °F 30.0 °F 73% 30.02 in 10.0 mi NNE 19.6 mph 38.0 mph N/A   Overcast
3:56 AM 37.9 °F 26.8 °F 30.9 °F 76% 30.04 in 10.0 mi North 24.2 mph 31.1 mph N/A   Overcast
4:56 AM 37.9 °F 27.3 °F 30.0 °F 73% 30.07 in 10.0 mi NNE 21.9 mph 28.8 mph N/A   Overcast
5:56 AM 37.0 °F 27.0 °F 28.9 °F 73% 30.08 in 10.0 mi North 18.4 mph 34.5 mph N/A   Overcast
7:56 AM 37.9 °F 28.5 °F 30.0 °F 73% 30.15 in 10.0 mi NNE 17.3 mph 31.1 mph N/A   Overcast
8:56 AM 37.9 °F 27.1 °F 30.0 °F 73% 30.16 in 10.0 mi NNE 23.0 mph 35.7 mph N/A   Overcast
9:56 AM 39.0 °F 29.3 °F 30.0 °F 70% 30.16 in 10.0 mi NNE 19.6 mph 29.9 mph N/A   Overcast
10:56 AM 39.0 °F 29.9 °F 30.9 °F 73% 30.17 in 10.0 mi NNE 17.3 mph 28.8 mph N/A   Overcast
11:56 AM 39.9 °F 30.2 °F 30.9 °F 70% 30.18 in 10.0 mi NNE 20.7 mph 27.6 mph N/A   Overcast
12:56 PM 39.9 °F 30.0 °F 30.9 °F 70% 30.19 in 10.0 mi North 21.9 mph 32.2 mph N/A   Overcast
1:56 PM 39.0 °F 29.3 °F 30.9 °F 73% 30.19 in 10.0 mi North 19.6 mph 31.1 mph N/A   Overcast
2:56 PM 39.0 °F 30.6 °F 30.9 °F 73% 30.20 in 10.0 mi NNE 15.0 mph 29.9 mph N/A   Overcast
3:56 PM 39.0 °F 31.4 °F 30.9 °F 73% 30.21 in 10.0 mi NNE 12.7 mph 23.0 mph N/A   Overcast
4:56 PM 37.9 °F 29.2 °F 30.9 °F 76% 30.23 in 10.0 mi NNE 15.0 mph 23.0 mph N/A   Overcast
5:56 PM 36.0 °F 29.0 °F 30.9 °F 82% 30.25 in 10.0 mi NNE 9.2 mph - N/A   Scattered Clouds
6:56 PM 36.0 °F 28.0 °F 30.9 °F 82% 30.28 in 10.0 mi NNE 11.5 mph - N/A   Scattered Clouds
7:56 PM 36.0 °F 29.0 °F 30.9 °F 82% 30.28 in 10.0 mi NNE 9.2 mph - N/A   Partly Cloudy
8:56 PM 36.0 °F 28.5 °F 32.0 °F 86% 30.28 in 10.0 mi NE 10.4 mph - N/A   Partly Cloudy
9:56 PM 36.0 °F 29.6 °F 32.0 °F 86% 30.29 in 10.0 mi NNE 8.1 mph - N/A   Clear
10:56 PM 36.0 °F 29.6 °F 30.9 °F 82% 30.30 in 10.0 mi NE 8.1 mph - N/A   Clear
11:56 PM 35.1 °F 30.1 °F 30.9 °F 85% 30.29 in 10.0 mi NE 5.8 mph - N/A   Partly Cloudy